Gallup, NM

8:44 AM MDT on October 23, 2017 (GMT -0600)
Gallup Municipal

Weather History for KGUP - October, 2012

Change the Weather History Date:

Sunday, October 14, 2012

  Actual Average Record
Temperature  
Mean Temperature 48 °F -  
Max Temperature 69 °F 66 °F 82 °F (2015)
Min Temperature 28 °F 29 °F 21 °F (1975)
Degree Days  
Heating Degree Days 17    
Moisture  
Dew Point 30 °F    
Average Humidity 57    
Maximum Humidity 89    
Minimum Humidity 23    
Precipitation  
Precipitation 0.00 in - - ()
Sea Level Pressure  
Sea Level Pressure 30.20 in    
Wind  
Wind Speed 3 mph (NNE)    
Max Wind Speed 12 mph    
Max Gust Speed 17 mph    
Visibility 10 miles    
Events      
Averages and records for this station are not official NWS values.
T = Trace of Precipitation, MM = Missing Value Source: NWS Daily Summary

Daily Weather History Graph

Daily Weather History Graph

Search for Another Location

Airport or City:

Trip Planner

Search our weather history database for the weather conditions in past years. The results will help you decide how hot, cold, wet, or windy it might be!

Date:

Astronomy

Oct. 14, 2012 Rise Set
Actual Time 7:21 AM MDT 6:40 PM MDT
Civil Twilight 6:55 AM MDT 7:05 PM MDT
Nautical Twilight 6:25 AM MDT 7:35 PM MDT
Astronomical Twilight 5:56 AM MDT 8:04 PM MDT
Moon 6:24 AM MDT (10/14) 6:02 PM MDT (10/14)
Length of Visible Light 12h 10m
Length of Day
11h 19m
Waning Crescent, 1% of the Moon is Illuminated
Oct 14
Waning Crescent
Oct 15
New
Oct 21
First Quarter
Oct 29
Full
Nov 6
Last Quarter

Hourly Weather History & Observations

Time (MDT) Temp. Windchill Dew Point Humidity Pressure Visibility Wind Dir Wind Speed Gust Speed Precip Events Conditions
12:53 AM 33.1 °F 30.0 °F 26.1 °F 75% 30.21 in 10.0 mi East 3.5 mph - N/A   Clear
1:53 AM 33.1 °F - 28.0 °F 82% 30.20 in 10.0 mi Calm Calm - N/A   Clear
2:53 AM 30.0 °F 25.2 °F 25.0 °F 82% 30.24 in 10.0 mi ENE 4.6 mph - N/A   Clear
3:53 AM 34.0 °F - 28.9 °F 82% 30.20 in 10.0 mi Calm Calm - N/A   Clear
4:53 AM 30.9 °F - 28.0 °F 89% 30.21 in 10.0 mi Calm Calm - N/A   Clear
5:53 AM 30.0 °F - 26.1 °F 85% 30.24 in 10.0 mi Calm Calm - N/A   Clear
6:53 AM 28.9 °F - 25.0 °F 85% 30.28 in 10.0 mi Calm Calm - N/A   Clear
7:53 AM 28.9 °F - 25.0 °F 85% 30.32 in 10.0 mi Calm Calm - N/A   Clear
8:53 AM 39.9 °F - 30.9 °F 70% 30.29 in 10.0 mi Calm Calm - N/A   Clear
9:53 AM 46.9 °F - 33.1 °F 59% 30.30 in 10.0 mi North 3.5 mph - N/A   Clear
10:53 AM 52.0 °F - 35.1 °F 53% 30.27 in 10.0 mi SW 3.5 mph - N/A   Clear
11:53 AM 59.0 °F - 36.0 °F 42% 30.22 in 10.0 mi Variable 3.5 mph - N/A   Clear
12:53 PM 64.0 °F - 35.1 °F 34% 30.19 in 10.0 mi North 5.8 mph - N/A   Clear
2:53 PM 66.9 °F - 32.0 °F 27% 30.13 in 10.0 mi NNE 11.5 mph 17.3 mph N/A   Clear
3:53 PM 68.0 °F - 30.9 °F 25% 30.09 in 10.0 mi NNE 9.2 mph - N/A   Clear
4:53 PM 68.0 °F - 28.9 °F 23% 30.09 in 10.0 mi North 6.9 mph - N/A   Clear
5:53 PM 66.0 °F - 30.9 °F 27% 30.12 in 10.0 mi NNE 5.8 mph - N/A   Clear
6:53 PM 60.1 °F - 30.9 °F 33% 30.16 in 10.0 mi NNE 9.2 mph - N/A   Clear
7:53 PM 55.0 °F - 30.9 °F 40% 30.22 in 10.0 mi NE 6.9 mph - N/A   Clear
8:53 PM 50.0 °F - 30.9 °F 48% 30.19 in 10.0 mi Calm Calm - N/A   Clear
9:53 PM 46.0 °F - 30.0 °F 54% 30.17 in 10.0 mi Calm Calm - N/A   Clear
10:53 PM 42.1 °F - 28.9 °F 60% 30.18 in 10.0 mi Calm Calm - N/A   Clear
11:53 PM 39.0 °F 36.8 °F 26.1 °F 60% 30.15 in 10.0 mi NE 3.5 mph - N/A   Clear